Leonardtown, MD

11:11 PM EDT on June 24, 2017 (GMT -0400)
Leonardtown

Weather History for K2W6 - November, 2012

Change the Weather History Date:

Sunday, November 18, 2012

  Actual Average (KNHK) Record (KNHK)
Temperature  
Mean Temperature 46 °F -  
Max Temperature 51 °F 58 °F 74 °F (1979)
Min Temperature 42 °F 39 °F 23 °F (2014)
Degree Days  
Heating Degree Days 18    
Moisture  
Dew Point 38 °F    
Average Humidity 70    
Maximum Humidity 81    
Minimum Humidity 62    
Precipitation  
Precipitation 0.00 in - - ()
Sea Level Pressure  
Sea Level Pressure 30.54 in    
Wind  
Wind Speed 3 mph (NNE)    
Max Wind Speed 8 mph    
Max Gust Speed -    
Visibility 10 miles    
Events      
Averages and records for this station are not official NWS values.
T = Trace of Precipitation, MM = Missing Value Source: NWS Daily Summary

Daily Weather History Graph

Daily Weather History Graph

Search for Another Location

Airport or City:

Trip Planner

Search our weather history database for the weather conditions in past years. The results will help you decide how hot, cold, wet, or windy it might be!

Date:

Astronomy

Nov. 18, 2012 Rise Set
Actual Time 6:51 AM EST 4:51 PM EST
Civil Twilight 6:22 AM EST 5:19 PM EST
Nautical Twilight 5:50 AM EST 5:51 PM EST
Astronomical Twilight 5:19 AM EST 6:23 PM EST
Moon 11:17 AM EST (11/18) 10:07 PM EST (11/18)
Length of Visible Light 10h 56m
Length of Day
9h 59m
Waxing Crescent, 30% of the Moon is Illuminated
Nov 18
Waxing Crescent
Nov 20
First Quarter
Nov 28
Full
Dec 6
Last Quarter
Dec 13
New

Hourly Weather History & Observations

Time (EST) Temp. Windchill Dew Point Humidity Pressure Visibility Wind Dir Wind Speed Gust Speed Precip Events Conditions
12:10 AM 44.6 °F - 37.4 °F 76% 30.57 in 10.0 mi Calm Calm - N/A   Clear
12:31 AM 44.6 °F - 37.4 °F 76% 30.57 in 10.0 mi Calm Calm - N/A   Clear
12:53 AM 44.6 °F 43.1 °F 37.4 °F 76% 30.57 in 10.0 mi NE 3.5 mph - N/A   Clear
1:14 AM 44.6 °F - 37.4 °F 76% 30.57 in 10.0 mi Calm Calm - N/A   Clear
1:35 AM 44.6 °F 43.1 °F 39.2 °F 81% 30.56 in 10.0 mi NE 3.5 mph - N/A   Clear
1:57 AM 44.6 °F - 39.2 °F 81% 30.56 in 10.0 mi Calm Calm - N/A   Clear
2:18 AM 44.6 °F - 37.4 °F 76% 30.56 in 10.0 mi Calm Calm - N/A   Clear
2:39 AM 44.6 °F 42.2 °F 37.4 °F 76% 30.56 in 10.0 mi NE 4.6 mph - N/A   Clear
3:00 AM 44.6 °F 42.2 °F 37.4 °F 76% 30.56 in 10.0 mi NE 4.6 mph - N/A   Clear
3:22 AM 44.6 °F - 37.4 °F 76% 30.55 in 10.0 mi Calm Calm - N/A   Clear
3:43 AM 44.6 °F - 37.4 °F 76% 30.55 in 10.0 mi Calm Calm - N/A   Clear
4:04 AM 44.6 °F - 37.4 °F 76% 30.56 in 10.0 mi Calm Calm - N/A   Clear
4:26 AM 44.6 °F - 37.4 °F 76% 30.56 in 10.0 mi Calm Calm - N/A   Mostly Cloudy
4:47 AM 44.6 °F 43.1 °F 37.4 °F 76% 30.57 in 10.0 mi NE 3.5 mph - N/A   Scattered Clouds
5:08 AM 44.6 °F - 37.4 °F 76% 30.57 in 10.0 mi Calm Calm - N/A   Scattered Clouds
5:51 AM 42.8 °F 40.1 °F 37.4 °F 81% 30.56 in 10.0 mi NNE 4.6 mph - N/A   Scattered Clouds
6:12 AM 42.8 °F 41.1 °F 37.4 °F 81% 30.57 in 10.0 mi NNE 3.5 mph - N/A   Clear
6:33 AM 42.8 °F - 37.4 °F 81% 30.57 in 10.0 mi Calm Calm - N/A   Clear
6:54 AM 42.8 °F 40.1 °F 37.4 °F 81% 30.57 in 10.0 mi NNE 4.6 mph - N/A   Clear
7:16 AM 42.8 °F 41.1 °F 37.4 °F 81% 30.58 in 10.0 mi NE 3.5 mph - N/A   Clear
7:37 AM 42.8 °F 40.1 °F 37.4 °F 81% 30.58 in 10.0 mi NNE 4.6 mph - N/A   Clear
7:58 AM 44.6 °F 43.1 °F 37.4 °F 76% 30.58 in 10.0 mi NNE 3.5 mph - N/A   Clear
8:19 AM 44.6 °F 43.1 °F 37.4 °F 76% 30.58 in 10.0 mi North 3.5 mph - N/A   Clear
8:41 AM 44.6 °F - 37.4 °F 76% 30.58 in 10.0 mi Calm Calm - N/A   Clear
9:02 AM 46.4 °F 44.3 °F 37.4 °F 71% 30.57 in 10.0 mi NE 4.6 mph - N/A   Scattered Clouds
9:23 AM 46.4 °F 42.9 °F 37.4 °F 71% 30.57 in 10.0 mi NNE 6.9 mph - N/A   Clear
9:44 AM 48.2 °F - 37.4 °F 66% 30.57 in 10.0 mi NNE 5.8 mph - N/A   Clear
10:06 AM 48.2 °F - 37.4 °F 66% 30.57 in 10.0 mi NNE 5.8 mph - N/A   Clear
10:27 AM 50.0 °F - 37.4 °F 62% 30.58 in 10.0 mi ENE 3.5 mph - N/A   Clear
10:48 AM 50.0 °F - 37.4 °F 62% 30.57 in 10.0 mi North 5.8 mph - N/A   Clear
11:09 AM 50.0 °F - 37.4 °F 62% 30.57 in 10.0 mi Calm Calm - N/A   Clear
11:30 AM 50.0 °F - 39.2 °F 66% 30.56 in 10.0 mi NNE 5.8 mph - N/A   Clear
11:52 AM 51.8 °F - 39.2 °F 62% 30.55 in 10.0 mi NNE 6.9 mph - N/A   Clear
12:13 PM 51.8 °F - 39.2 °F 62% 30.53 in 10.0 mi NE 4.6 mph - N/A   Clear
12:34 PM 51.8 °F - 39.2 °F 62% 30.52 in 10.0 mi NE 4.6 mph - N/A   Clear
12:56 PM 51.8 °F - 39.2 °F 62% 30.52 in 10.0 mi NNE 4.6 mph - N/A   Clear
1:17 PM 51.8 °F - 39.2 °F 62% 30.52 in 10.0 mi North 8.1 mph - N/A   Clear
1:38 PM 51.8 °F - 39.2 °F 62% 30.52 in 10.0 mi NNE 4.6 mph - N/A   Clear
1:59 PM 51.8 °F - 39.2 °F 62% 30.51 in 10.0 mi NE 6.9 mph - N/A   Clear
2:20 PM 51.8 °F - 39.2 °F 62% 30.50 in 10.0 mi NNE 4.6 mph - N/A   Clear
2:42 PM 51.8 °F - 39.2 °F 62% 30.51 in 10.0 mi NNE 5.8 mph - N/A   Clear
3:03 PM 51.8 °F - 39.2 °F 62% 30.51 in 10.0 mi NE 5.8 mph - N/A   Clear
3:24 PM 51.8 °F - 39.2 °F 62% 30.51 in 10.0 mi NE 6.9 mph - N/A   Clear
3:45 PM 51.8 °F - 39.2 °F 62% 30.51 in 10.0 mi ENE 4.6 mph - N/A   Clear
4:07 PM 51.8 °F - 39.2 °F 62% 30.51 in 10.0 mi NE 6.9 mph - N/A   Clear
4:49 PM 50.0 °F - 39.2 °F 66% 30.51 in 10.0 mi ENE 4.6 mph - N/A   Mostly Cloudy
5:10 PM 50.0 °F - 39.2 °F 66% 30.51 in 10.0 mi NE 6.9 mph - N/A   Overcast
5:32 PM 50.0 °F - 39.2 °F 66% 30.50 in 10.0 mi Calm Calm - N/A   Mostly Cloudy
5:53 PM 50.0 °F - 39.2 °F 66% 30.51 in 10.0 mi NNE 3.5 mph - N/A   Overcast
6:14 PM 50.0 °F - 39.2 °F 66% 30.52 in 10.0 mi NE 4.6 mph - N/A   Mostly Cloudy
7:18 PM 50.0 °F - 37.4 °F 62% 30.52 in 10.0 mi NE 4.6 mph - N/A   Overcast
7:39 PM 50.0 °F - 37.4 °F 62% 30.52 in 10.0 mi NNE 6.9 mph - N/A   Overcast
8:00 PM 50.0 °F - 37.4 °F 62% 30.52 in 10.0 mi NE 5.8 mph - N/A   Overcast
8:22 PM 48.2 °F - 37.4 °F 66% 30.51 in 10.0 mi NNE 3.5 mph - N/A   Overcast
9:47 PM 46.4 °F 45.2 °F 37.4 °F 71% 30.51 in 10.0 mi NNE 3.5 mph - N/A   Mostly Cloudy
10:08 PM 46.4 °F 44.3 °F 37.4 °F 71% 30.50 in 10.0 mi NNE 4.6 mph - N/A   Overcast
10:51 PM 46.4 °F - 37.4 °F 71% 30.49 in 10.0 mi Calm Calm - N/A   Overcast
11:12 PM 46.4 °F 45.2 °F 37.4 °F 71% 30.49 in 10.0 mi NNE 3.5 mph - N/A   Overcast
11:33 PM 46.4 °F 42.9 °F 37.4 °F 71% 30.49 in 10.0 mi NNE 6.9 mph - N/A   Overcast